OneWeb SL0357

operational
NORAD ID: 49219 Int'l Des: 2021-083 Owner: ONEWEBN Country: UK Constellation: oneweb
LEOCIRCULARPOLARONEWEB_TYPE

About OneWeb SL0357

Description loading...

Live Position

Loading 3D Globe...

Upcoming Passes

Altitude History

Altitude vs Time

uPlot chart will show altitude changes over time

Two-Line Element Set

1 49219U 21083AK 26061.16131377 .00000012 00000-0 -34068-5 0 9993
2 49219 87.9182 295.8005 0001727 88.5366 271.5965 13.20771955222689
Epoch: Mar 2, 2026 • Age: 28 hours

Current Status

Altitude 1189.5 km
Velocity 7.26 km/s
Sub-Earth Point 53.27°N, 110.34°W
Launch Date Sep 14, 2021
Age 4.4 years
Type internet

Technical Details

Classification Payload
Mass 148.00 kg
Dry Mass 140.00 kg
Total Mass 148.00 kg
Length 1.30 m
Diameter 1.00 m
Span 5.00 m
Shape Trapezoid+2 pan
Manufacturer ONEWUS
Bus Type ARROW
Phase Status In Orbit
Owner/State ONEWEBN/UK

Large Constellations

Loading constellations...